STARLINK-2537 (48301 NORAD) Tracking and Keplerian Element Data

This shows tracking and keplerian element data for the satellite.

Feedback or suggestion? Click here.




ElementValue
Catalog48301
NameSTARLINK-2537
Epoch Orbit195
Epoch Day173.83334491
Epoch Year2021
RAAN258.8472
Inclination53.0502
Eccentricity0.0001224
Argument of Perigee87.3962
Mean Anonmoly172.4806
Mean Motion15.40049316
Decay Rate-0.01083707
L11 48301U 21036AB 21173.83334491 -.01083707 00000-0 -29106-1 0 9994
L22 48301 53.0502 258.8472 0001224 87.3962 172.4806 15.40049316 1959

Live tracking and technical data element details for STARLINK-2537 (NORAD 48301). STARLINK-2537 can be tracked NOW for your location showing map with azimuth and elevation plus other details from your city location.

Track the satellite on the map from your city or location and see movement details for azimuth, elevation, latitude, longitude, range, height, and movement on the map or in text.







IsCatalogInMostPopularTable: catalog: 48301, numindb: 19
Update: records affected: 1



GetName: 48301 STARLINK-2537

Hit Count: updated at: Thu, 24 Jun 2021 04:14:44 GMT